Regional Weather Roundup
Issued by NWS

Home | Current Version | Previous Version | Text Only | Print | Product List | Glossary Off
Versions: 1 2 3 4 5 6 7 8 9 10 11 12 13 14 15 16 17 18 19 20 21 22 23 24 25 26 27 28 29 30 31 32 33 34 35 36 37 38 39 40 41 42 43 44 45 46 47 48 49 50

000
ASUS43 KOAX 050102
RWRNE

WEATHER ROUNDUP FOR NEBRASKA
NATIONAL WEATHER SERVICE OMAHA NE
700 PM CST WED MAR 04 2015

NOTES: SATELLITE DATA IS BEING USED TO AUGMENT CLOUD COVER ABOVE
       12000 FEET.
       "FAIR" INDICATES FEW OR NO CLOUDS BELOW 12,000 FEET WITH NO
       SIGNIFICANT WEATHER AND/OR OBSTRUCTIONS TO VISIBILITY.

  * THESE STATIONS DO NOT REPORT WEATHER SUCH AS RAIN...SNOW OR FOG.

NEZ001>004-019>022-054>056-050200-
NEBRASKA PANHANDLE

CITY           SKY/WX    TMP DP  RH WIND       PRES   REMARKS
SCOTTSBLUFF    CLEAR     20   3  48 NW10      30.18R WCI   9
ALLIANCE       CLEAR     18   0  45 NW13      30.17R WCI   5
CHADRON        PTCLDY    12   3  67 SW10      30.21R WCI  -1
KIMBALL        CLEAR     20   1  44 NW8       30.13R WCI  10
SIDNEY         CLEAR     20   3  48 N8        30.17R WCI  10
$$

NEZ057>060-069>072-079>082-050200-
SOUTHWEST NEBRASKA

CITY           SKY/WX    TMP DP  RH WIND       PRES   REMARKS
NORTH PLATTE   CLEAR     23  -3  32 N9        30.24R WCI  13
IMPERIAL         N/A     25   6  44 N8        30.23R WCI  16
LEXINGTON      CLEAR     20   6  53 N7        30.27R WCI  12
MCCOOK         CLEAR     23   2  40 NW8       30.27R WCI  14
$$

NEZ005>010-023>029-035>040-094-050200-
NORTH CENTRAL NEBRASKA

CITY           SKY/WX    TMP DP  RH WIND       PRES   REMARKS
VALENTINE      CLEAR     12   1  61 N5        30.28R WCI   4
AINSWORTH      CLEAR     11   1  64 N8        30.28R WCI  -1
BROKEN BOW     CLEAR     16  -5  39 N8        30.26R WCI   5
ORD            CLEAR     17  -4  39 N8        30.30R WCI   7
$$

NEZ041-046>049-061>064-073>077-083>087-050200-
SOUTH CENTRAL NEBRASKA

CITY           SKY/WX    TMP DP  RH WIND       PRES   REMARKS
GRAND ISLAND   CLEAR     18   2  49 NE7       30.33R WCI   9
HASTINGS       CLEAR     20   3  48 NE7       30.30R WCI  11
HEBRON         PTCLDY    24   3  40 NE5       30.34R WCI  18
KEARNEY *      CLEAR     19   3  49 N8        30.30R WCI   9
$$

NEZ011>018-030>034-042>045-050200-
NORTHEAST NEBRASKA

CITY           SKY/WX    TMP DP  RH WIND       PRES   REMARKS
NORFOLK        CLEAR     15  -2  46 N15       30.36R WCI   0
BLAIR          CLEAR     20  -3  37 N13       30.36R WCI   7
COLUMBUS *     CLEAR     18  -8  32 N12       30.37R WCI   5
FREMONT        CLEAR     20  -3  36 N9        30.38R WCI   9
TEKAMAH        CLEAR     18  -3  39 N14       30.40R WCI   4
$$

NEZ050>053-065>068-078-088>093-050200-
SOUTHEAST NEBRASKA

CITY           SKY/WX    TMP DP  RH WIND       PRES   REMARKS
LINCOLN        CLEAR     20  -2  38 N10       30.37R WCI   9
OMAHA EPPLEY   PTCLDY    20  -1  40 N14       30.38R WCI   7
FALLS CITY     PTCLDY    25   0  33 N7        30.34R WCI  17
$$

NEZ044-045-051>053-067-050200-
OMAHA AREA

CITY           SKY/WX    TMP DP  RH WIND       PRES   REMARKS
OMAHA EPPLEY   PTCLDY    20  -1  40 N14       30.38R WCI   7
BLAIR          CLEAR     20  -3  37 N13       30.36R WCI   7
FREMONT        CLEAR     20  -3  36 N9        30.38R WCI   9
OFFUTT AFB     CLEAR     21  -3  35 N10       30.37R WCI  10
$$



USA.gov is the U.S. government's official web portal to all federal, state and local government web resources and services.